Home   Weather   Mexico City   Past weeks

Flag for Mexico Past Weather in Mexico City, Ciudad de México, Mexico — Yesterday and Last 2 Weeks

Now
73 °F

Partly sunny.


Feels Like: 77 °F
Forecast: 56 / 76 °F
Wind: 7 mph from Northwest

Location: Mexico City / Licenci

Current Time: Jul 22, 2017 at 3:58:04 pm

Latest Report: Jul 22, 2017 at 2:48 pm


Visibility: 6 mi

Pressure: 30.30 "Hg (23.40 "Hg at 2241m altitude)

Humidity: 44%

Dew Point: 50 °F

Location of Mexico CityLocation

Past Weather in Mexico City — Graph

°F

Mexico City Temperature Yesterday

Maximum temperature yesterday: 75 °F (at 3:42 pm)
Minimum temperature yesterday: 55 °F (at 2:55 am)
Average temperature yesterday: 64 °F

High & Low Weather Summary for the Past Weeks

 TemperatureHumidityPressure
High77 °F (Jul 14, 4:45 pm)100% (Jul 11, 11:27 pm)30.49 "Hg (Jul 11, 11:27 pm)
Low54 °F (Jul 11, 11:27 pm)26% (Jul 14, 4:45 pm)29.70 "Hg (Jul 16, 3:47 pm)
Average64 °F68%30.22 "Hg
* Reported Jul 7 1:46 pm — Jul 22 1:50 pm, Mexico City. Weather by CustomWeather, © 2017

Note: Actual official high and low records may vary slightly from our data, if they occured in-between our weather recording intervals... More about our weather records

Advertising

Mexico City Weather History for the Previous 24 Hours

Scroll right to see more
 ConditionsComfort  
Time TempWeatherWind HumidityBarometerVisibility
1:50 pm
Sat, Jul 22
72 °FScattered clouds.8 mph47%30.33 "Hg6 mi
12:47 pm70 °FBroken clouds.3 mph50%29.82 "Hg6 mi
11:49 am68 °FBroken clouds.7 mph56%30.37 "Hg5 mi
11:25 am68 °FScattered clouds.7 mph60%30.38 "Hg5 mi
10:40 am64 °FScattered clouds.3 mph64%30.38 "Hg5 mi
9:48 am61 °FPartly sunny.No wind72%29.89 "Hg4 mi
8:44 am59 °FMostly cloudy.5 mph77%30.38 "Hg5 mi
7:48 am59 °FScattered clouds.5 mph77%30.37 "Hg7 mi
6:48 am59 °FPassing clouds.6 mph77%29.88 "Hg8 mi
5:43 am57 °FPassing clouds.No wind82%30.34 "Hg8 mi
4:48 am59 °FPassing clouds.5 mph77%30.34 "Hg10 mi
3:52 am61 °FPassing clouds.5 mph72%29.77 "Hg12 mi
2:47 am61 °FPassing clouds.5 mph72%30.35 "Hg12 mi
1:47 am61 °FPassing clouds.7 mph72%30.37 "Hg12 mi
12:51 am63 °FPartly cloudy.7 mph68%29.87 "Hg12 mi
11:46 pm
Fri, Jul 21
63 °FPartly cloudy.9 mph68%30.39 "Hg12 mi
10:42 pm63 °FOvercast.2 mph64%30.38 "Hg12 mi
9:49 pm63 °FOvercast.12 mph64%29.88 "Hg12 mi
9:18 pm63 °FThunderstorms. Overcast.8 mph68%30.35 "Hg10 mi
8:52 pm63 °FThunderstorms. Mostly cloudy.5 mph68%30.35 "Hg8 mi
7:44 pm64 °FMostly cloudy.10 mph60%30.32 "Hg10 mi
6:51 pm64 °FThunderstorms. Mostly cloudy.10 mph56%29.84 "Hg8 mi
6:24 pm66 °FThunderstorms. Mostly cloudy.16 mph56%30.29 "Hg7 mi
5:50 pm64 °FThunderstorms. Mostly cloudy.13 mph64%30.38 "Hg3 mi
5:38 pm72 °FThunderstorms. Mostly cloudy.16 mph57%30.28 "Hg3 mi
4:46 pm75 °FBroken clouds.6 mph41%30.27 "Hg7 mi
3:42 pm75 °FBroken clouds.3 mph36%29.79 "Hg7 mi
Weather by CustomWeather, © 2017

See weather overviewHow to use our weather pages